Weather History for Austin, MN

Change the Weather History Date:

Sunday, December 9, 2012

  Actual Average Record
Temperature  
Mean Temperature 30 °F -  
Max Temperature 33 °F 32 °F 51 °F (2006)
Min Temperature 28 °F 19 °F -5 °F (2013)
Degree Days  
Heating Degree Days 34    
Moisture  
Dew Point 30 °F    
Average Humidity 94    
Maximum Humidity 100    
Minimum Humidity 81    
Precipitation  
Precipitation 0.08 in - - ()
Sea Level Pressure  
Sea Level Pressure 29.83 in    
Wind  
Wind Speed 10 mph (SE)    
Max Wind Speed 16 mph    
Max Gust Speed 22 mph    
Visibility 4 miles    
Events Snow    
Averages and records for this station are not official NWS values.
T = Trace of Precipitation, MM = Missing Value Source: NWS Daily Summary

Daily Weather History Graph

Daily Weather History Graph

Search for Another Location

Airport:

Trip Planner

Search our weather history database for the weather conditions in past years. The results will help you decide how hot, cold, wet, or windy it might be!

Date:

Astronomy

Dec. 09, 2012 Rise Set
Actual Time 7:33 AM CST 4:34 PM CST
Civil Twilight 7:01 AM CST 5:07 PM CST
Nautical Twilight 6:25 AM CST 5:43 PM CST
Astronomical Twilight 5:50 AM CST 6:18 PM CST
Moon 3:01 AM CST (12/9) 1:46 PM CST (12/9)
Length of Visible Light 10h 06m
Length of Day
9h 00m
Waning Crescent, 18% of the Moon is Illuminated
Dec 9
Waning Crescent
Dec 13
New
Dec 19
First Quarter
Dec 28
Full
Jan 4
Last Quarter

Hourly Weather History & Observations

Time (CST) Temp. Windchill Dew Point Humidity Pressure Visibility Wind Dir Wind Speed Gust Speed Precip Events Conditions
12:15 AM 33.8 °F 25.8 °F 28.4 °F 81% 29.95 in 10.0 mi SE 10.4 mph 18.4 mph N/A   Overcast
12:35 AM 33.8 °F 26.4 °F 28.4 °F 81% 29.95 in 10.0 mi SE 9.2 mph - N/A   Overcast
12:55 AM 33.8 °F 27.7 °F 28.4 °F 81% 29.96 in 7.0 mi SSE 6.9 mph - N/A Snow Light Snow
1:15 AM 33.8 °F 26.4 °F 30.2 °F 87% 29.95 in 2.5 mi SSE 9.2 mph - N/A Snow Light Snow
1:35 AM 32.0 °F 24.2 °F 30.2 °F 93% 29.94 in 2.5 mi SE 9.2 mph - N/A Snow Light Snow
1:55 AM 32.0 °F 24.2 °F 30.2 °F 93% 29.94 in 3.0 mi SE 9.2 mph - N/A Snow Light Snow
2:15 AM 32.0 °F 24.8 °F 30.2 °F 93% 29.95 in 5.0 mi SE 8.1 mph - N/A   Overcast
2:35 AM 32.0 °F 25.6 °F 30.2 °F 93% 29.95 in 5.0 mi ESE 6.9 mph - N/A   Overcast
2:55 AM 32.0 °F 24.2 °F 30.2 °F 93% 29.93 in 7.0 mi ESE 9.2 mph - N/A   Overcast
3:15 AM 32.0 °F 23.6 °F 30.2 °F 93% 29.93 in 7.0 mi ESE 10.4 mph - N/A   Overcast
3:34 AM 32.0 °F 24.2 °F 30.2 °F 93% 29.94 in 7.0 mi ESE 9.2 mph - N/A   Overcast
3:55 AM 32.0 °F 24.2 °F 30.2 °F 93% 29.93 in 7.0 mi SE 9.2 mph - N/A   Overcast
4:15 AM 32.0 °F 24.8 °F 30.2 °F 93% 29.94 in 7.0 mi SE 8.1 mph - N/A   Overcast
4:35 AM 32.0 °F 23.6 °F 30.2 °F 93% 29.93 in 10.0 mi SE 10.4 mph - N/A   Overcast
4:55 AM 33.8 °F 25.3 °F 30.2 °F 87% 29.92 in 4.0 mi SE 11.5 mph - N/A Snow Light Snow
5:15 AM 32.0 °F 22.1 °F 30.2 °F 93% 29.90 in 4.0 mi SE 13.8 mph - N/A Snow Light Snow
5:34 AM 32.0 °F 22.1 °F 30.2 °F 93% 29.89 in 4.0 mi ESE 13.8 mph - N/A Snow Light Snow
5:55 AM 32.0 °F 22.1 °F 30.2 °F 93% 29.88 in 5.0 mi SE 13.8 mph 19.6 mph N/A Snow Light Snow
6:15 AM 32.0 °F 22.1 °F 30.2 °F 93% 29.89 in 5.0 mi SE 13.8 mph 21.9 mph N/A Snow Light Snow
6:35 AM 32.0 °F 21.6 °F 30.2 °F 93% 29.89 in 5.0 mi ESE 15.0 mph - N/A   Overcast
6:55 AM 32.0 °F 22.1 °F 30.2 °F 93% 29.88 in 4.0 mi ESE 13.8 mph - N/A Snow Light Snow
7:15 AM 32.0 °F 21.6 °F 30.2 °F 93% 29.87 in 2.5 mi ESE 15.0 mph - N/A Snow Light Snow
7:35 AM 32.0 °F 21.2 °F 30.2 °F 93% 29.88 in 2.0 mi ESE 16.1 mph - N/A Snow Light Snow
7:55 AM 32.0 °F 23.0 °F 30.2 °F 93% 29.88 in 2.0 mi SE 11.5 mph - N/A Snow Light Snow
8:15 AM 32.0 °F 23.6 °F 30.2 °F 93% 29.88 in 1.8 mi ESE 10.4 mph - N/A Snow Light Snow
8:35 AM 32.0 °F 23.0 °F 30.2 °F 93% 29.88 in 0.5 mi ESE 11.5 mph - N/A Snow Light Snow
8:55 AM 32.0 °F 23.0 °F 30.2 °F 93% 29.88 in 0.5 mi ESE 11.5 mph - 0.01 in Snow Snow
9:15 AM 32.0 °F 22.1 °F 30.2 °F 93% 29.87 in 0.5 mi ESE 13.8 mph - N/A Snow Light Snow
9:35 AM 32.0 °F 22.1 °F 32.0 °F 100% 29.86 in 0.8 mi ESE 13.8 mph - 0.01 in Snow Light Snow
9:55 AM 32.0 °F 22.1 °F 32.0 °F 100% 29.86 in 1.2 mi ESE 13.8 mph - 0.02 in Snow Light Snow
10:15 AM 32.0 °F 23.0 °F 32.0 °F 100% 29.86 in 1.5 mi ESE 11.5 mph - 0.01 in Snow Light Snow
10:35 AM 33.8 °F 25.3 °F 32.0 °F 93% 29.86 in 1.8 mi ESE 11.5 mph - 0.01 in Snow Light Snow
10:55 AM 33.8 °F 24.3 °F 32.0 °F 93% 29.83 in 1.5 mi ESE 13.8 mph - 0.01 in Snow Light Snow
11:15 AM 33.8 °F 25.3 °F 32.0 °F 93% 29.82 in 1.2 mi ESE 11.5 mph - N/A Snow Light Snow
11:34 AM 33.8 °F 26.4 °F 32.0 °F 93% 29.83 in 2.0 mi SE 9.2 mph - N/A Snow Light Snow
11:55 AM 33.8 °F 25.3 °F 32.0 °F 93% 29.80 in 1.5 mi ESE 11.5 mph - N/A Snow Light Snow
12:15 PM 33.8 °F 24.8 °F 32.0 °F 93% 29.79 in 1.2 mi ESE 12.7 mph - N/A Snow Light Snow
12:35 PM 33.8 °F 28.6 °F 32.0 °F 93% 29.80 in 2.0 mi SE 5.8 mph - N/A Snow Light Snow
12:55 PM 33.8 °F 28.6 °F 32.0 °F 93% 29.79 in 1.0 mi SE 5.8 mph - N/A Snow Light Snow
1:15 PM 33.8 °F 27.0 °F 32.0 °F 93% 29.77 in 0.8 mi SE 8.1 mph - 0.01 in Snow Light Snow
1:35 PM 32.0 °F 25.6 °F 32.0 °F 100% 29.76 in 1.0 mi SE 6.9 mph - 0.01 in Snow Light Snow
1:55 PM 33.8 °F 28.6 °F 32.0 °F 93% 29.76 in 1.0 mi SE 5.8 mph - 0.02 in Snow Light Snow
2:14 PM 33.8 °F 29.6 °F 32.0 °F 93% 29.75 in 1.2 mi SE 4.6 mph - N/A Snow Light Snow
2:35 PM 33.8 °F 30.8 °F 32.0 °F 93% 29.75 in 1.0 mi SSE 3.5 mph - N/A Snow Light Snow
2:55 PM 33.8 °F 30.8 °F 32.0 °F 93% 29.76 in 1.0 mi SE 3.5 mph - 0.02 in Snow Light Snow
3:15 PM 33.8 °F 28.6 °F 32.0 °F 93% 29.76 in 2.0 mi SE 5.8 mph - N/A Snow Light Snow
3:35 PM 33.8 °F 27.7 °F 32.0 °F 93% 29.75 in - SE 6.9 mph - N/A   Unknown
3:55 PM 33.8 °F 30.8 °F 32.0 °F 93% 29.76 in 1.5 mi SE 3.5 mph - N/A   Overcast
4:15 PM 33.8 °F 30.8 °F 32.0 °F 93% 29.75 in 1.0 mi SE 3.5 mph - N/A   Overcast
4:35 PM 33.8 °F 30.8 °F 32.0 °F 93% 29.75 in 1.8 mi SE 3.5 mph - N/A   Overcast
4:55 PM 33.8 °F 27.0 °F 32.0 °F 93% 29.76 in 3.0 mi South 8.1 mph - N/A   Overcast
5:15 PM 30.2 °F 20.2 °F 30.2 °F 100% 29.76 in 5.0 mi West 12.7 mph - N/A   Overcast
5:35 PM 30.2 °F 23.4 °F 30.2 °F 100% 29.77 in 5.0 mi West 6.9 mph - N/A   Overcast
5:55 PM 30.2 °F 21.9 °F 28.4 °F 93% 29.76 in 10.0 mi West 9.2 mph - N/A   Overcast
6:15 PM 30.2 °F 23.4 °F 28.4 °F 93% 29.76 in 10.0 mi West 6.9 mph - N/A   Overcast
6:35 PM 30.2 °F 21.3 °F 28.4 °F 93% 29.76 in 7.0 mi West 10.4 mph - N/A   Overcast
6:55 PM 28.4 °F 19.1 °F 28.4 °F 100% 29.76 in 5.0 mi West 10.4 mph 16.1 mph N/A   Overcast
7:15 PM 28.4 °F 20.4 °F 28.4 °F 100% 29.77 in 4.0 mi West 8.1 mph - N/A   Overcast
7:35 PM 28.4 °F 19.7 °F 28.4 °F 100% 29.77 in 4.0 mi WNW 9.2 mph - N/A   Overcast
7:55 PM 28.4 °F 19.7 °F 26.6 °F 93% 29.76 in 2.0 mi WNW 9.2 mph - N/A   Overcast
8:15 PM 28.4 °F 22.2 °F 26.6 °F 93% 29.77 in 2.5 mi West 5.8 mph - N/A Snow Light Snow
8:35 PM 28.4 °F 22.2 °F 26.6 °F 93% 29.76 in 3.0 mi West 5.8 mph - N/A Snow Light Snow
8:55 PM 28.4 °F 20.4 °F 26.6 °F 93% 29.77 in 3.0 mi WNW 8.1 mph - N/A Snow Light Snow
9:14 PM 28.4 °F 19.7 °F 28.4 °F 100% 29.76 in 4.0 mi WNW 9.2 mph - N/A Snow Light Snow
9:35 PM 30.2 °F 21.3 °F 28.4 °F 93% 29.77 in 3.0 mi North 10.4 mph - N/A Snow Light Snow
9:55 PM 28.4 °F 18.5 °F 28.4 °F 100% 29.78 in 2.5 mi North 11.5 mph 20.7 mph N/A Snow Light Snow
10:15 PM 28.4 °F 18.0 °F 28.4 °F 100% 29.78 in 4.0 mi North 12.7 mph 20.7 mph N/A Snow Light Snow
10:55 PM 28.4 °F 18.5 °F 26.6 °F 93% 29.80 in 10.0 mi NNW 11.5 mph 18.4 mph N/A   Overcast
11:15 PM 28.4 °F 18.0 °F 26.6 °F 93% 29.81 in 10.0 mi NNW 12.7 mph 19.6 mph N/A   Overcast
11:35 PM 28.4 °F 17.0 °F 26.6 °F 93% 29.81 in 10.0 mi NNW 15.0 mph 18.4 mph N/A   Overcast
11:55 PM 28.4 °F 16.6 °F 26.6 °F 93% 29.82 in 10.0 mi NNW 16.1 mph 20.7 mph N/A   Overcast